TimeCDT,TemperatureF,Dew PointF,Humidity,Sea Level PressureIn,VisibilityMPH,Wind Direction,Wind SpeedMPH,Gust SpeedMPH,PrecipitationIn,Events,Conditions,WindDirDegrees,DateUTC
12:56 AM,30.9,30.0,96,29.82,0.2,WSW,3.5,-,N/A,Fog,Light Freezing Fog,240,2013-03-31 05:56:00
1:46 AM,30.2,30.2,100,29.78,0.8,South,3.5,-,N/A,,Mist,180,2013-03-31 06:46:00
1:51 AM,32.0,30.2,93,29.78,2.0,Calm,Calm,-,N/A,,Mostly Cloudy,0,2013-03-31 06:51:00
1:56 AM,32.0,30.9,96,29.82,4.0,SSW,3.5,-,N/A,,Scattered Clouds,200,2013-03-31 06:56:00
2:56 AM,32.0,30.0,92,29.80,4.0,SW,3.5,-,N/A,,Clear,220,2013-03-31 07:56:00
3:56 AM,32.0,30.0,92,29.78,4.0,SSW,5.8,-,N/A,,Mostly Cloudy,210,2013-03-31 08:56:00
4:56 AM,30.9,28.9,92,29.78,4.0,West,10.4,-,N/A,,Mostly Cloudy,260,2013-03-31 09:56:00
5:56 AM,30.0,28.9,96,29.77,4.0,WSW,6.9,-,N/A,,Partly Cloudy,240,2013-03-31 10:56:00
6:56 AM,30.0,27.0,88,29.77,3.0,WSW,6.9,-,N/A,,Clear,250,2013-03-31 11:56:00
7:56 AM,30.0,28.0,92,29.78,3.0,WSW,10.4,-,N/A,,Mostly Cloudy,250,2013-03-31 12:56:00
8:21 AM,30.2,28.4,93,29.75,3.0,WSW,10.4,-,N/A,,Overcast,250,2013-03-31 13:21:00
8:40 AM,30.2,28.4,93,29.75,3.0,West,12.7,-,N/A,,Overcast,270,2013-03-31 13:40:00
8:56 AM,30.9,28.9,92,29.78,4.0,West,11.5,-,N/A,,Overcast,260,2013-03-31 13:56:00
9:56 AM,33.1,30.0,89,29.76,5.0,West,10.4,-,N/A,,Overcast,260,2013-03-31 14:56:00
10:56 AM,34.0,30.0,85,29.78,6.0,West,13.8,-,N/A,,Overcast,280,2013-03-31 15:56:00
11:56 AM,35.1,30.0,82,29.78,6.0,WNW,11.5,-,0.00,,Overcast,300,2013-03-31 16:56:00
12:04 PM,35.6,30.2,81,29.75,6.0,WNW,11.5,-,0.00,,Overcast,290,2013-03-31 17:04:00
12:49 PM,37.4,28.4,70,29.75,10.0,WNW,10.4,-,0.00,,Overcast,290,2013-03-31 17:49:00
12:56 PM,36.0,28.9,76,29.78,7.0,WNW,10.4,-,0.00,Snow,Light Snow,300,2013-03-31 17:56:00
1:09 PM,33.8,28.4,81,29.76,1.8,NW,17.3,23.0,0.00,Snow,Light Snow,320,2013-03-31 18:09:00
1:12 PM,33.8,28.4,81,29.76,0.8,NW,17.3,23.0,0.00,Snow,Light Snow,310,2013-03-31 18:12:00
1:25 PM,33.8,30.2,87,29.76,2.0,WNW,12.7,-,0.01,Snow,Light Snow,300,2013-03-31 18:25:00
1:32 PM,35.6,28.4,75,29.76,5.0,NW,11.5,-,0.01,Snow,Light Snow,310,2013-03-31 18:32:00
1:56 PM,37.0,25.0,62,29.80,10.0,NNW,16.1,26.5,0.02,,Mostly Cloudy,330,2013-03-31 18:56:00
2:56 PM,37.9,19.0,47,29.81,10.0,NW,16.1,23.0,N/A,,Scattered Clouds,310,2013-03-31 19:56:00
3:56 PM,37.0,16.0,42,29.82,10.0,NW,13.8,25.3,N/A,,Scattered Clouds,320,2013-03-31 20:56:00
4:56 PM,37.0,12.9,37,29.85,10.0,NNW,15.0,24.2,N/A,,Scattered Clouds,340,2013-03-31 21:56:00
5:56 PM,36.0,12.0,37,29.86,10.0,NNW,15.0,23.0,N/A,,Partly Cloudy,330,2013-03-31 22:56:00
6:56 PM,34.0,12.0,40,29.90,10.0,NNW,11.5,17.3,N/A,,Partly Cloudy,330,2013-03-31 23:56:00
7:56 PM,32.0,12.9,45,29.92,10.0,NNW,12.7,-,N/A,,Scattered Clouds,330,2013-04-01 00:56:00
8:56 PM,30.9,12.0,46,29.95,10.0,NNW,10.4,-,N/A,,Clear,330,2013-04-01 01:56:00
9:56 PM,28.9,12.0,49,29.98,10.0,NNW,10.4,-,N/A,,Clear,330,2013-04-01 02:56:00
10:56 PM,27.0,12.0,53,30.01,10.0,NNW,10.4,-,N/A,,Clear,330,2013-04-01 03:56:00
11:56 PM,26.1,10.9,53,30.03,10.0,NW,12.7,17.3,N/A,,Clear,320,2013-04-01 04:56:00